Regional Weather Roundup
Issued by NWS

Home | Current Version | Previous Version | Text Only | Print | Product List | Glossary Off
Versions: 1 2 3 4 5 6 7 8 9 10 11 12 13 14 15 16 17 18 19 20 21 22 23 24 25 26 27 28 29 30 31 32 33 34 35 36 37 38 39 40 41 42 43 44 45 46 47 48 49 50

099
ASUS45 KABQ 061401
RWRNM
NEW MEXICO REGIONAL WEATHER ROUNDUP
NATIONAL WEATHER SERVICE ALBUQUERQUE NM
700 AM MST TUE DEC 06 2016

NOTE: "FAIR" MEANS FEW OR NO CLOUDS BELOW 12,000 FEET AGL WITH NO
       SIGNIFICANT WEATHER OR OBSTRUCTIONS TO VISION.

      THIS PRODUCT IS RELEASED AS TWO VERSIONS.  ONE VERSION NEAR
      THE TOP OF THE HOUR CONTAINING PRELIMINARY DATA FROM ALBUQUERQUE
      AND OTHER STATIONS.  A FINAL VERSION WITH ADDITIONAL DATA IS
      ISSUED ABOUT 10 MINUTES AFTER THE HOUR.

NMZ501-503-504-510>518-061500-
NORTHWEST PLATEAU/NORTHCENTRAL MOUNTAINS

CITY           SKY/WX    TMP DP  RH WIND       PRES   REMARKS
FARMINGTON     MOCLDY    27  19  72 E8        29.88R WCI  19
LOS ALAMOS     FAIR      33   7  33 SW7       29.91S WCI  27
SANTA FE       FAIR      29  14  53 CALM      29.92R
TAOS           FAIR      23   7  50 NE5       29.90S WCI  17
ANGEL FIRE     FAIR      15   6  68 SE3       29.91R

$$
NMZ402-403-502-505>509-061500-
WESTCENTRAL MOUNTAINS/SOUTHWEST MOUNTAINS

CITY           SKY/WX    TMP DP  RH WIND       PRES   REMARKS
GALLUP         FAIR      28  20  71 S3        29.93R
GRANTS         MOCLDY    33  18  54 SE8       29.94R WCI  26
SILVER CITY    FAIR      31  21  67 N7        30.00R WCI  24

$$
NMZ407-409-411-412-061500-
SOUTHERN DESERTS

CITY           SKY/WX    TMP DP  RH WIND       PRES   REMARKS
DEMING         FAIR      31  24  75 CALM      29.99R
LAS CRUCES     FAIR      42  29  60 W15       29.98S
HOLLOMAN AFB   FAIR      40  22  49 SE14      29.99R WCI  32
T OR C         FAIR      39  19  44 W3        29.95R

$$
NMZ519>523-061500-
CENTRAL VALLEYS/CENTRAL HIGHLANDS

CITY           SKY/WX    TMP DP  RH WIND       PRES   REMARKS
ALBUQUERQUE    CLOUDY    37  18  46 SE7       29.93R WCI  32
DOUBLE EAGLE   CLOUDY    34  18  51 CALM      29.93R
MORIARTY ARPT  CLOUDY    30  14  52 CALM      29.96R
CLINES CORNERS CLOUDY    23  13  65 E10       29.96R WCI  12
BELEN          MOCLDY    38  21  50 S7        29.94R WCI  32
SOCORRO        FAIR      37  19  49 CALM      29.94S

$$
NMZ524>526-539-540-061500-
SOUTHCENTRAL MOUNTAINS

CITY           SKY/WX    TMP DP  RH WIND       PRES   REMARKS
RUIDOSO        FAIR      27  18  69 SE8       30.01S WCI  18

$$
NMZ527>531-061500-
NORTHEAST HIGHLANDS/NORTHEAST PLAINS

CITY           SKY/WX    TMP DP  RH WIND       PRES   REMARKS
LAS VEGAS      FAIR      16   5  62 S15       29.96R WCI   1
RATON          FAIR      11   1  64 N6        29.96R WCI   1
CLAYTON        FAIR      18   9  68 N8        30.03R WCI   8

$$
NMZ532>537-061500-
EASTCENTRAL PLAINS

CITY           SKY/WX    TMP DP  RH WIND       PRES   REMARKS
TUCUMCARI      FAIR      28   6  39 E12       30.08R WCI  18
CANNON AFB     MOCLDY    26   6  42 NE18      30.04S WCI  13
CLOVIS AIRPORT FAIR      27   7  43 NE15      30.04F WCI  15

$$
NMZ028-029-538-061500-
SOUTHEAST PLAINS

CITY           SKY/WX    TMP DP  RH WIND       PRES   REMARKS
ROSWELL        FAIR      32  14  47 N5        30.08R WCI  27
ARTESIA        FAIR      32  19  59 N8        30.08R WCI  25
CARLSBAD       FAIR      34  21  59 N12       30.06R WCI  25
HOBBS          CLEAR     32  16  51 N12       30.05R WCI  23


$$




USA.gov is the U.S. government's official web portal to all federal, state and local government web resources and services.